Home > Weather > Pittsburgh > Past weeks

Flag for U.S.A. Weather for the Past 2 Weeks in Pittsburgh, Pennsylvania, U.S.A.

Now
10 °F

Light snow. Mostly cloudy.


Feels Like: -4 °F
Forecast: 3 / 20 °F
Wind: 10 mph from Northwest

Location: Allegheny County Airport

Current Time: Feb 13, 2016 at 7:14:22 PM

Latest Report: Feb 13, 2016 at 6:04 PM


Visibility: 3 mi

Pressure: 30.36 "Hg

Humidity: 69%

Dew point: 2 °F

Location of PittsburghLocation

Historic Weather in Pittsburgh — Graph

°F

Pittsburgh Temperature Yesterday

Maximum temperature yesterday: 21 °F (at 9:56 PM)
Minimum temperature yesterday: 6 °F (at 6:53 AM)
Average temperature yesterday: 15 °F

High & Low Weather Summary for the Past Weeks

 TemperatureHumidityPressure
High65 °F (Jan 31, 2:53 PM)93% (Feb 3, 8:53 AM)30.43 "Hg (Feb 3, 8:53 AM)
Low6 °F (Feb 12, 6:53 AM)30% (Jan 30, 3:53 PM)29.51 "Hg (Feb 9, 5:04 AM)
Average34 °F62%30.00 "Hg
* Reported Jan 29 6:53 PM — Feb 13 6:04 PM, Pittsburgh, Weather by CustomWeather, © 2016

Note: Actual official high and low records may vary slightly from our data, if they occured in-between our weather recording intervals... More about our weather records

Advertising

Pittsburgh Weather History for the Previous 24 Hours

 ConditionsComfort  
Time TempWeatherWind HumidityBarometerVisibility
6:04 PM
Sat, Feb 13
10 °FLight snow. Mostly cloudy.10 mph69%30.36 "Hg3 mi
4:53 PM11 °FLight snow. Mostly cloudy.12 mph61%30.43 "Hg3 mi
3:53 PM12 °FMostly cloudy.10 mph46%30.41 "Hg10 mi
2:53 PM12 °FMostly cloudy.14 mph46%30.40 "Hg10 mi
2:04 PM11 °FLight snow. Overcast.16 mph61%30.30 "Hg2 mi
1:00 PM11 °FLight snow. Mostly cloudy.14 mph64%30.31 "Hg1 mi
11:53 AM10 °FLight snow. Ice fog.13 mph58%30.39 "Hg1 mi
10:53 AM11 °FOvercast.15 mph46%30.38 "Hg10 mi
9:53 AM10 °FPassing clouds.13 mph50%30.37 "Hg10 mi
8:53 AM8 °FSunny.16 mph54%30.35 "Hg10 mi
7:53 AM7 °FScattered clouds.13 mph60%30.33 "Hg10 mi
6:53 AM8 °FClear.14 mph54%30.30 "Hg10 mi
5:53 AM8 °FLight snow. Ice fog.13 mph72%30.27 "Hg1 mi
4:53 AM11 °FMostly cloudy.13 mph59%30.22 "Hg10 mi
3:53 AM13 °FOvercast.13 mph61%30.18 "Hg10 mi
3:02 AM14 °FSnow. Ice fog.12 mph80%30.07 "Hg1 mi
2:53 AM15 °FLight snow. Ice fog.14 mph74%30.14 "Hg1 mi
1:53 AM16 °FOvercast.20 mph71%30.11 "Hg8 mi
12:53 AM17 °FMostly cloudy.15 mph64%30.09 "Hg3 mi
11:59 PM
Fri, Feb 12
18 °FLight snow. Mostly cloudy.13 mph71%29.99 "Hg2 mi
10:53 PM20 °FMostly cloudy.14 mph71%30.03 "Hg10 mi
9:56 PM21 °FLight snow. Overcast.15 mph74%29.94 "Hg2 mi
8:53 PM20 °FMostly cloudy.9 mph78%30.02 "Hg8 mi
7:53 PM20 °FOvercast.12 mph78%30.02 "Hg7 mi
Weather by CustomWeather, © 2016

See weather overviewHow to use our weather pages